TimeEDT,TemperatureF,Dew PointF,Humidity,Sea Level PressureIn,VisibilityMPH,Wind Direction,Wind SpeedMPH,Gust SpeedMPH,PrecipitationIn,Events,Conditions,WindDirDegrees,DateUTC
12:53 AM,72.0,69.1,91,30.00,6.0,Calm,Calm,-,N/A,,Clear,0,2013-08-29 04:53:00
1:53 AM,71.1,69.1,93,29.99,6.0,Calm,Calm,-,N/A,,Clear,0,2013-08-29 05:53:00
2:53 AM,71.1,69.1,93,29.98,5.0,Calm,Calm,-,N/A,,Clear,0,2013-08-29 06:53:00
3:53 AM,70.0,68.0,93,29.98,4.0,Calm,Calm,-,N/A,,Clear,0,2013-08-29 07:53:00
4:09 AM,69.8,68.0,94,30.01,1.8,Calm,Calm,-,N/A,,Clear,0,2013-08-29 08:09:00
4:21 AM,69.8,68.0,94,30.02,3.0,Calm,Calm,-,N/A,,Clear,0,2013-08-29 08:21:00
4:53 AM,69.1,66.9,93,29.98,5.0,Calm,Calm,-,N/A,,Clear,0,2013-08-29 08:53:00
5:53 AM,69.1,68.0,96,29.99,4.0,Calm,Calm,-,N/A,,Clear,0,2013-08-29 09:53:00
6:53 AM,70.0,68.0,93,30.00,4.0,Calm,Calm,-,N/A,,Clear,0,2013-08-29 10:53:00
7:53 AM,71.1,68.0,90,30.02,4.0,Calm,Calm,-,N/A,,Clear,0,2013-08-29 11:53:00
8:53 AM,73.0,70.0,90,30.03,6.0,Calm,Calm,-,N/A,,Clear,0,2013-08-29 12:53:00
9:53 AM,78.1,71.1,79,30.03,8.0,Calm,Calm,-,N/A,,Clear,0,2013-08-29 13:53:00
10:53 AM,82.9,70.0,65,30.02,10.0,Calm,Calm,-,N/A,,Clear,0,2013-08-29 14:53:00
11:53 AM,87.1,71.1,59,30.01,10.0,Variable,3.5,-,N/A,,Clear,0,2013-08-29 15:53:00
12:53 PM,89.1,71.1,55,29.99,10.0,Variable,4.6,-,N/A,,Clear,0,2013-08-29 16:53:00
1:53 PM,89.1,71.1,55,29.98,10.0,Variable,3.5,-,N/A,,Scattered Clouds,0,2013-08-29 17:53:00
2:53 PM,89.1,70.0,53,29.97,10.0,NNW,4.6,-,N/A,,Scattered Clouds,340,2013-08-29 18:53:00
3:53 PM,91.0,71.1,52,29.94,10.0,Variable,3.5,-,N/A,,Partly Cloudy,0,2013-08-29 19:53:00
4:53 PM,88.0,72.0,59,29.94,10.0,Calm,Calm,-,N/A,,Mostly Cloudy,0,2013-08-29 20:53:00
5:53 PM,90.0,72.0,55,29.93,10.0,Calm,Calm,-,N/A,,Scattered Clouds,0,2013-08-29 21:53:00
6:53 PM,88.0,72.0,59,29.92,10.0,Calm,Calm,-,N/A,,Clear,0,2013-08-29 22:53:00
7:53 PM,84.0,72.0,67,29.94,10.0,NNW,3.5,-,N/A,,Partly Cloudy,330,2013-08-29 23:53:00
8:53 PM,79.0,72.0,79,29.94,10.0,Calm,Calm,-,N/A,,Clear,0,2013-08-30 00:53:00
9:53 PM,78.1,73.0,84,29.96,10.0,Calm,Calm,-,N/A,,Scattered Clouds,0,2013-08-30 01:53:00
10:53 PM,77.0,72.0,84,29.96,10.0,Calm,Calm,-,N/A,,Partly Cloudy,0,2013-08-30 02:53:00
11:53 PM,75.9,72.0,87,29.95,10.0,Calm,Calm,-,N/A,,Partly Cloudy,0,2013-08-30 03:53:00